{"data":{"norad_id":60129,"epoch":"2026-09-21T05:24:11.439360Z","epoch_age_seconds":118823,"freshness":"FRESH","line1":"1 60129U 24118S   26264.22513240  .00000239  00000+0  18210-4 0  9992","line2":"2 60129  53.1594 194.2210 0001209  74.1988 285.9148 15.34398833125692","mean_motion":15.34398833,"eccentricity":0.0001209,"inclination_deg":53.1594,"raan_deg":194.221,"arg_perigee_deg":74.1988,"mean_anomaly_deg":285.9148,"bstar":1.821e-5,"rev_number":12569,"period_min":93.84782945804,"perigee_km":461.87965077485,"apogee_km":463.53376678363,"semimajor_km":6840.8437087792,"source":"CELESTRAK","updated_at":"2026-09-22T09:00:49.158091Z"}}